SCP
1 2 2 2 3 3 3 3 2 2 2 2 2 2 1 1 1 1 1 1 1 1 1 2 2 2 1 1 1 1 1 1 1 1 1 1 1 1 1 2 2 2 2
2 2 3 3 3 3 3 3 2 2 2 2 2 2 1 1 1 1 1 1 1 1 1 1 2 2 1 1 1 1 1 1 1 1 1 1 1 1 2 2 2 2 2
2 3 3 3 3 3 3 3 3 2 2 2 2 2 1 1 2 2 2 1 1 1 1 1 1 1 1 1 1 1 1 1 1 1 1 1 1 1 2 2 2 2 2
2 2 3 3 3 3 2 2 2 2 2 2 1 1 1 1 2 2 2 2 2 1 1 1 1 1 1 1 1 1 1 1 1 1 1 1 1 1 2 2 2 2 2
2 2 2 3 3 2 2 2 2 2 1 1 1 1 1 1 1 2 2 2 2 1 1 1 1 1 1 1 1 1 1 1 1 1 1 1 1 1 2 2 3 3 2
2 2 2 2 2 2 2 2 1 1 1 2 2 2 1 1 2 2 2 2 2 2 1 1 1 1 1 1 1 1 1 1 1 1 1 1 1 2 2 2 3 3 3
1 2 2 2 2 2 2 2 2 2 2 2 2 2 2 2 2 2 2 2 2 2 1 1 1 1 1 1 1 1 1 1 1 1 1 1 2 2 2 2 3 3 3
1 2 2 2 2 2 2 2 2 2 2 2 2 2 2 2 2 2 2 2 2 2 2 2 1 1 1 1 1 1 1 1 1 1 1 1 2 2 2 2 3 3 3
1 2 2 2 2 2 2 2 3 2 3 3 2 2 2 2 2 1 2 2 2 2 2 2 2 1 1 1 1 1 1 1 1 1 1 2 2 2 2 2 2 2 2
2 2 1 1 1 2 2 2 2 2 2 2 2 2 2 1 1 1 1 1 2 2 2 2 2 2 1 1 1 1 1 1 1 1 1 2 2 3 2 2 2 2 2
2 2 1 1 1 2 2 2 1 2 2 2 2 2 2 2 1 1 1 1 1 1 1 1 1 1 1 2 2 2 2 2 2 2 2 2 2 3 2 2 2 2 2
3 3 2 2 1 2 2 2 2 2 2 2 2 2 3 2 1 1 1 1 1 1 1 1 1 1 1 1 1 1 2 2 2 2 2 3 3 3 2 2 1 1 1
4 3 3 2 2 2 2 3 3 3 3 3 3 4 3 2 2 2 2 2 1 1 1 1 1 1 1 1 1 1 1 2 2 2 2 3 3 3 2 2 1 1 1
4 4 4 3 3 3 3 4 4 5 5 5 5 6 5 3 3 3 3 3 3 2 2 2 2 1 1 1 1 1 1 2 2 2 2 2 3 3 2 2 2 1 1
4 5 5 4 4 4 4 5 5 6 6 7 7 7 6 5 4 3 4 4 4 3 3 2 2 2 2 2 1 1 1 1 2 2 2 2 2 2 2 2 2 2 2
4 5 5 5 4 4 4 5 5 5 6 7 7 7 7 7 5 4 4 4 4 4 3 3 2 2 2 2 1 1 1 1 2 2 2 2 2 2 2 2 2 2 2
4 5 5 5 4 4 4 4 5 5 5 6 6 6 7 7 6 5 5 4 4 5 4 3 3 3 2 2 1 1 1 1 2 2 2 2 2 2 1 1 1 2 2
5 5 5 5 5 4 4 4 5 5 5 5 5 5 5 5 6 6 5 5 5 5 5 4 4 3 3 2 1 1 1 2 2 2 2 2 2 2 1 1 1 1 1
5 5 5 5 5 5 5 5 5 5 5 5 5 4 4 4 5 5 5 4 4 5 5 5 4 4 3 2 2 2 2 2 2 2 2 2 2 2 2 1 1 1 1
4 5 4 4 5 5 5 5 5 4 4 4 4 4 4 4 4 4 3 3 4 4 4 4 4 4 3 3 3 2 2 2 2 2 2 2 1 2 2 1 1 1 1
4 4 4 4 5 5 6 6 6 4 4 4 4 4 4 3 3 3 2 2 3 3 3 4 4 4 3 3 3 3 2 2 1 1 1 1 1 1 1 1 1 1 1
3 4 4 5 5 5 6 7 6 5 3 3 3 3 3 3 2 2 2 2 3 3 3 3 4 4 3 3 3 2 2 1 1 1 1 1 1 1 1 1 1 1 1
4 4 4 5 5 5 5 6 6 5 3 3 2 2 2 2 2 2 2 2 3 3 4 4 4 4 3 3 2 2 1 1 1 1 1 1 1 1 1 1 1 1 2
3 4 4 5 5 5 5 5 5 4 3 3 3 2 2 2 2 2 2 2 3 3 4 4 4 4 3 2 2 2 1 1 1 1 1 1 1 1 1 1 1 2 2
4 4 4 6 7 7 6 5 5 4 3 3 3 2 2 2 2 1 2 2 2 3 4 5 5 4 3 2 2 1 2 2 1 1 1 1 1 1 1 2 2 2 2
4 4 4 6 8 8 7 6 5 4 3 3 3 2 2 2 1 1 1 2 2 3 4 4 4 4 3 3 2 2 2 2 1 1 1 1 1 1 1 2 2 2 2
Wind_Speed
6 9 12 8 7 8 8 9 9 9 9 9 9 9 9 9 10 9 9 8 8 8 8 8 8 8 9 9 9 10 9 9 9 8 8 7 8 8 9 8 8 8 12
8 10 12 8 8 9 8 8 9 9 9 9 9 8 8 8 9 8 8 8 8 7 8 8 7 8 8 8 9 9 9 8 8 8 7 8 8 8 7 7 4 6 10
9 10 12 9 8 9 9 9 9 9 9 9 8 8 8 8 8 7 7 7 7 7 7 7 7 7 7 7 7 8 8 8 8 7 7 6 8 8 7 6 7 8 9
9 10 10 11 8 9 10 9 9 9 9 9 8 8 7 7 7 7 7 6 6 6 6 6 6 6 7 7 7 7 7 7 7 7 5 4 5 9 7 6 7 8 8
9 10 11 10 9 9 9 9 9 9 9 9 8 7 7 6 6 6 6 6 6 5 5 6 6 6 6 6 6 6 7 7 7 6 3 3 3 7 7 6 7 7 8
9 9 12 10 9 8 8 8 8 8 8 8 8 7 6 6 5 6 6 6 5 5 4 5 5 5 6 6 6 6 6 7 8 6 4 3 4 7 7 6 6 7 7
8 8 11 10 8 8 8 8 8 8 7 7 7 7 6 5 5 5 5 5 4 4 4 4 5 5 5 6 6 6 6 6 5 4 4 4 4 7 7 6 6 6 7
8 9 10 11 9 8 7 7 7 7 6 6 6 6 6 5 5 5 5 5 4 4 4 4 5 5 5 5 5 6 6 7 6 5 5 4 6 6 6 6 6 6 6
9 9 8 9 9 9 8 7 6 6 6 6 6 6 5 5 5 5 5 4 4 4 4 4 5 5 5 5 5 5 6 6 6 4 5 4 7 6 6 6 5 6 6
8 8 7 7 7 7 8 8 6 6 6 6 6 6 5 5 6 5 6 4 3 3 3 4 4 4 4 4 5 6 6 7 6 5 4 4 7 6 6 6 6 6 6
7 6 6 6 6 5 6 7 7 7 6 6 6 6 6 5 5 5 4 4 4 4 3 4 4 4 4 5 5 6 8 5 5 4 3 6 7 6 6 6 6 6 6
8 7 6 5 5 5 4 5 4 4 4 3 3 4 3 2 2 2 6 5 5 5 5 5 4 6 7 5 7 8 5 5 4 4 3 6 6 6 6 6 6 6 6
8 6 6 5 4 4 3 3 2 2 2 2 2 2 2 2 2 2 3 5 5 7 5 6 7 4 3 2 3 4 4 4 3 3 4 7 5 6 7 7 6 6 6
7 7 6 6 5 4 3 3 2 2 2 1 2 2 2 1 1 1 1 2 3 2 3 3 3 3 3 3 4 4 4 3 3 2 3 6 5 5 6 6 7 7 7
7 7 6 6 5 4 3 2 2 2 2 2 1 1 2 2 1 1 1 1 2 2 3 3 3 3 3 4 4 4 4 4 4 4 3 7 5 5 5 6 6 6 6
7 6 5 6 6 5 4 3 2 2 2 2 2 1 1 1 1 1 2 2 2 1 1 2 2 3 3 2 3 4 4 4 4 4 4 5 7 6 5 4 5 6 6
6 6 5 6 5 5 4 4 3 2 3 2 2 2 2 1 1 2 2 2 1 1 2 3 3 3 3 3 4 4 4 4 3 4 4 4 5 7 6 5 5 5 6
6 6 5 4 5 5 3 3 2 2 2 2 2 2 2 2 2 2 2 1 1 2 2 2 3 3 3 3 3 3 3 3 4 5 4 4 3 3 7 7 5 5 6
7 6 6 5 4 4 4 3 3 2 2 2 2 2 2 3 3 3 2 1 2 2 2 2 2 3 3 3 3 3 3 3 4 5 4 4 4 4 4 6 7 6 7
6 6 5 5 4 4 4 3 3 3 3 2 2 2 2 2 3 3 2 3 3 2 2 2 2 2 2 3 3 2 3 3 3 4 5 4 5 6 5 5 5 7 8
6 6 5 5 5 4 3 4 3 3 3 3 3 3 3 3 3 3 2 3 3 2 3 3 3 3 3 2 3 3 3 4 3 3 4 4 4 5 4 5 5 4 5
7 7 6 6 5 5 3 3 3 3 3 2 2 2 3 3 3 3 3 3 3 3 3 3 3 3 2 3 3 3 3 4 5 4 4 4 4 4 5 6 5 5 5
8 7 5 5 5 5 4 4 3 2 3 3 3 3 3 4 4 3 3 3 3 3 3 3 4 5 3 3 3 3 3 2 2 4 4 3 3 4 4 4 6 6 6
7 7 6 6 5 5 5 5 4 3 3 3 3 3 3 4 5 4 4 4 4 3 3 4 3 4 5 3 3 3 3 3 3 2 4 4 4 4 5 5 5 6 6
7 7 6 5 5 5 5 5 5 4 3 3 3 3 4 4 5 5 5 4 4 4 3 4 3 4 4 4 3 3 4 3 5 4 4 3 4 4 4 5 5 5 5
7 6 6 6 5 5 5 4 4 4 4 3 4 4 4 4 4 5 5 5 5 4 4 5 4 5 4 4 4 4 4 4 5 4 4 5 4 4 4 4 5 4 5
Wind_Direction
144 129 129 138 139 138 139 139 135 135 133 131 130 131 134 134 135 137 136 136 138 138 138 137 139 139 139 137 138 138 139 139 142 143 138 137 140 141 141 148 161 145 127
134 130 133 137 139 140 139 140 139 137 135 132 131 131 132 135 136 137 135 136 141 143 141 138 140 143 145 143 143 146 146 145 144 144 145 144 144 146 148 151 156 112 128
134 133 141 135 137 140 140 139 140 138 135 132 132 133 135 137 136 135 136 135 138 142 143 143 143 146 146 146 146 149 147 147 147 152 174 169 145 147 150 148 131 126 135
134 135 133 130 134 136 138 139 139 138 135 134 133 133 135 136 137 137 135 135 136 135 139 144 144 146 146 145 144 150 151 148 151 172 186 157 148 140 147 148 144 141 143
138 134 123 132 129 128 132 136 137 137 136 135 133 132 133 133 132 134 136 140 139 139 143 147 150 154 152 148 148 153 156 153 161 193 166 150 139 130 145 154 155 154 153
139 133 127 134 129 131 138 139 139 139 139 137 136 134 134 136 136 137 139 142 142 143 148 156 155 160 161 155 151 154 161 166 188 184 166 174 160 139 158 164 160 162 159
137 132 130 134 132 130 132 134 137 139 141 141 140 142 143 143 142 144 146 148 152 155 158 160 156 159 164 163 161 156 156 174 205 175 171 182 145 133 165 170 164 165 165
139 133 130 137 137 136 132 134 136 138 140 143 143 147 150 153 156 157 156 161 167 169 167 165 163 161 165 167 167 165 171 201 197 184 187 184 132 145 165 166 165 164 167
132 131 136 145 145 145 141 135 134 136 134 134 136 140 148 155 160 164 163 162 170 180 180 175 173 170 171 173 174 176 185 210 223 191 192 182 143 168 178 175 173 175 172
132 134 140 144 143 153 147 136 133 129 126 129 133 141 150 164 168 172 174 158 167 176 188 183 177 178 175 180 184 185 195 213 218 199 196 154 148 171 182 182 183 184 182
137 138 142 143 143 149 143 134 147 147 145 161 155 152 183 191 177 178 150 148 179 188 189 185 183 186 184 178 183 195 210 220 206 205 200 136 155 176 183 184 191 195 195
151 150 148 144 148 147 136 139 156 160 147 175 150 166 185 172 188 176 137 169 188 191 190 190 195 202 218 194 181 200 215 215 213 197 170 139 161 183 190 195 197 201 208
159 155 153 149 152 147 139 141 141 144 139 158 147 173 185 191 186 188 172 179 190 197 196 182 202 209 215 210 210 210 222 223 213 203 162 147 172 191 194 197 200 200 208
163 162 161 158 155 154 135 136 148 142 145 148 148 198 185 193 199 185 206 197 199 197 199 203 202 192 209 208 217 219 221 233 225 209 152 146 175 195 201 205 205 205 207
166 167 166 165 156 151 146 161 146 158 161 152 167 175 217 198 198 191 208 229 226 208 201 205 207 192 211 211 219 218 224 233 239 228 174 154 175 194 203 210 210 207 208
172 170 169 172 162 161 162 170 171 173 172 179 174 165 227 230 193 215 205 217 225 226 235 230 210 211 228 224 227 225 232 229 226 229 227 178 177 189 199 211 217 210 208
168 166 171 174 169 173 178 187 188 185 187 185 176 183 208 229 212 220 215 210 202 203 208 226 218 224 221 218 224 228 230 229 225 231 231 227 192 180 189 204 217 215 213
167 166 173 178 173 179 187 202 204 205 200 196 191 191 206 220 225 232 222 205 198 206 211 214 230 227 226 233 232 237 233 226 222 224 224 225 232 214 186 186 204 211 215
170 172 174 178 180 185 190 202 207 196 210 213 208 203 205 218 222 235 224 188 216 210 215 230 212 241 223 232 229 227 236 234 218 217 220 225 226 235 229 179 191 206 214
172 177 178 182 184 194 192 193 203 205 210 213 211 205 212 216 216 230 210 194 212 202 213 217 215 234 249 239 240 228 240 233 225 214 220 214 218 225 228 226 203 196 207
176 180 183 187 183 193 194 203 206 208 215 214 214 200 204 213 211 226 228 200 214 197 217 213 214 202 220 226 231 217 214 214 220 220 221 221 213 220 227 229 234 230 199
182 184 188 189 187 198 195 209 215 219 223 221 230 209 211 211 214 217 222 223 207 200 203 210 216 229 219 212 243 240 219 199 206 217 215 215 223 222 223 221 223 230 243
187 189 189 192 192 199 201 205 200 201 214 208 215 208 210 214 220 230 218 226 217 220 200 216 210 221 227 219 236 262 258 241 212 197 221 226 227 234 233 227 224 223 230
191 186 191 194 196 199 202 204 204 212 225 225 222 212 208 213 217 215 215 213 221 225 203 221 203 223 233 232 210 245 282 313 272 233 212 209 222 237 242 244 234 223 225
187 184 185 189 196 199 204 202 213 226 234 223 215 207 216 207 214 215 212 212 217 223 218 231 214 229 233 246 243 229 228 239 252 264 258 245 235 231 231 239 246 242 232
183 182 181 184 192 195 203 207 215 228 235 232 223 215 217 207 210 209 215 216 217 220 216 224 227 227 245 252 254 246 239 241 239 243 253 251 253 246 240 240 239 234 233